This is the latest recevied weather packets stored in our database for station/object W8XLR-2. If no packets are shown the sender has not sent any weather packets the latest 10 day(s).
| Time | Temp. | Humidity | Pressure | Rain* | Wind** | Luminosity | Snow |
|---|---|---|---|---|---|---|---|
| 1778185009 | 13.89° C | 47% | 1013.4 hPa | 0 mm | - | - | - |
| 1778184412 | 13.89° C | 46% | 1013.6 hPa | 0 mm | - | - | - |
| 1778183860 | 13.89° C | 46% | 1013.7 hPa | 0 mm | - | - | - |
| 1778183808 | 13.89° C | 46% | 1013.7 hPa | 0 mm | - | - | - |
| 1778183323 | 13.89° C | 46% | 1013.7 hPa | 0 mm | - | - | - |
| 1778183212 | 13.89° C | 46% | 1013.7 hPa | 0 mm | - | - | - |
| 1778182609 | 13.89° C | 45% | 1013.8 hPa | 0 mm | - | - | - |
| 1778182013 | 13.89° C | 45% | 1013.7 hPa | 0 mm | - | - | - |
| 1778181450 | 13.89° C | 45% | 1013.7 hPa | 0 mm | - | - | - |
| 1778181410 | 13.89° C | 45% | 1013.7 hPa | 0 mm | - | - | - |
| 1778180810 | 14.44° C | 44% | 1013.4 hPa | 0 mm | - | - | - |
| 1778180255 | 14.44° C | 46% | 1013.7 hPa | 0 mm | - | - | - |
| 1778180209 | 14.44° C | 46% | 1013.7 hPa | 0 mm | - | - | - |
| 1778179609 | 14.44° C | 46% | 1013.7 hPa | 0 mm | - | - | - |
| 1778179010 | 13.89° C | 46% | 1013.6 hPa | 0 mm | - | - | - |
| 1778178411 | 14.44° C | 44% | 1013.8 hPa | 0 mm | - | - | - |
| 1778177809 | 14.44° C | 44% | 1013.8 hPa | 0 mm | - | - | - |
| 1778177210 | 14.44° C | 44% | 1013.9 hPa | 0 mm | - | - | - |
| 1778176608 | 14.44° C | 45% | 1013.9 hPa | 0 mm | - | - | - |
| 1778176008 | 14.44° C | 45% | 1013.9 hPa | 0 mm | - | - | - |
| 1778175411 | 15° C | 41% | 1014 hPa | 0 mm | - | - | - |
| 1778174848 | 15.56° C | 46% | 1014.1 hPa | 0 mm | - | - | - |
| 1778174809 | 15.56° C | 46% | 1014.1 hPa | 0 mm | - | - | - |
| 1778174208 | 15.56° C | 46% | 1014.1 hPa | 0 mm | - | - | - |
| 1778173608 | 15.56° C | 44% | 1014.1 hPa | 0 mm | - | - | - |
* Rain latest hour (hover to see other rain measurements)
** Current wind speed in m/s (hover to see current wind gust speed)